Location: Memphis International Airport Police
(35.0443°N, 89.9815°W)
Time: 18:08:35
(UTC+00:00)

SPOT 1/Viking Rocket - Pass Details

Date: 26 September 2023
Orbit: 776 x 791 km, 98.3° (Epoch: 10 December)

Event Time Altitude Azimuth Distance (km) Brightness Sun altitude
Exits shadow 02:04:35 74° 5° (N) 814 3.5 -27.4°
Drops below altitude 10° 02:09:17 10° 349° (N) 2,336 6.3 -28.3°
Sets 02:11:36 0° 349° (NNW) 3,266 7.2 -28.7°
